[[{"header":{"parameterUnit":"m.s-1","parameterCategory":1,"la1":30.2991,"la2":30.254,"lo1":-89.0895,"lo2":-89.0444,"dy":0.0017,"dx":0.0017,"nx":28,"ny":28,"refTime":"2024-07-05T21:00:00:Z","depth":0,"parameterNumber":2,"parameterNumberName":"U-component_of_WINDS"},"data":[0,0,0,0,0,0,0,0,0,0,0,0,0,0,0,0,0,0,0,0,0,0,0,0,0,0,0,0,0,0,0,0,0,0,0,0,0,0,0,0,0,0,0,0,0,0,0,0,0,0,0,0,0,0,0,0,0,0,2.408,2.4082,0,2.4254,2.4256,2.4258,2.4312,2.4311,2.431,2.4309,2.4487,2.4492,2.4498,0,0,0,0,0,0,0,0,0,0,0,0,0,2.3794,2.3799,2.408,2.4082,2.4085,2.4254,2.4256,2.4259,2.4312,2.4311,2.431,2.4309,2.4485,2.4492,2.4498,0,0,0,0,0,0,0,0,0,0,0,0,0,2.3938,2.3801,2.408,2.4131,2.4138,2.4253,2.4256,2.4259,2.4312,2.4311,2.4309,2.4308,2.4483,2.4491,2.4499,2.4576,0,0,2.4525,2.4528,0,0,0,0,0,0,0,0,2.393,2.3949,2.4122,2.4128,2.4135,2.426,2.4221,2.4366,2.4312,2.4246,2.4309,2.4308,2.4413,2.4427,2.4462,2.4584,2.4592,2.4525,2.453,2.4534,2.4536,0,0,0,0,0,0,0,2.392,2.3942,2.4149,2.4124,2.4133,2.4146,2.4165,2.4249,2.4334,2.4252,2.4256,2.4276,2.4416,2.4454,2.4467,2.4595,2.4525,2.4533,2.4538,2.4541,2.479,2.4791,0,0,0,0,0,0,2.3901,2.3933,2.4144,2.4154,2.4027,2.4152,2.4174,2.4221,2.4333,2.4349,2.4277,2.4278,2.444,2.4457,2.4473,2.457,2.4534,2.4542,2.4546,2.4788,2.479,2.4792,0,0,0,0,0,0,2.3895,2.392,2.4136,2.4045,2.4074,2.4159,2.4212,2.4225,2.4263,2.4352,2.4368,2.4299,2.444,2.4461,2.455,2.4577,2.4545,2.4553,2.4786,2.4789,2.4791,2.4765,0,0,0,0,0,0,2.3886,2.3917,2.3947,2.4045,2.4078,2.421,2.4213,2.423,2.4277,2.428,2.4378,2.4393,2.4441,2.4538,2.4558,2.4588,2.4559,2.4784,2.4787,2.479,2.4764,2.4767,2.4769,0,0,0,0,0,2.3876,2.3932,2.3948,2.3973,2.4117,2.4212,2.4231,2.4284,2.4279,2.431,2.4368,2.439,2.4571,2.4546,2.457,2.4603,2.4783,2.4787,2.479,2.4763,2.4766,2.4769,0,0,0,0,0,0,2.3834,2.3946,2.3965,2.4054,2.4123,2.4221,2.4261,2.4286,2.4358,2.4357,2.4421,2.4443,2.4527,2.4574,2.4544,2.4683,2.4678,2.4687,2.4649,2.4653,2.4655,2.4641,2.4566,0,0,0,0,0,2.3835,2.3903,2.3997,2.4067,2.4101,2.4175,2.4218,2.4254,2.4328,2.4357,2.4421,2.4492,2.4565,2.4612,2.4684,2.4772,2.4794,2.4806,2.4808,2.481,2.4816,2.4866,2.4873,2.4804,2.4804,2.4804,0,0,2.3838,2.3908,2.3946,2.4061,2.4118,2.4187,2.4199,2.4271,2.4322,2.4368,2.4456,2.4505,2.4589,2.4678,2.472,2.4719,2.4841,2.4815,2.4815,2.4821,2.4871,2.4877,2.4883,2.4807,2.4806,2.4806,0,0,2.3878,2.3938,2.4003,2.4061,2.4148,2.4198,2.4213,2.4308,2.4342,2.4432,2.4467,2.453,2.4655,2.4713,2.4759,2.4823,2.4846,2.4845,2.4856,2.4904,2.491,2.4915,2.4937,2.4945,2.4851,2.4851,2.4851,0,2.3871,2.3976,2.4033,2.4104,2.4153,2.4198,2.4265,2.4318,2.4424,2.4457,2.4456,2.4614,2.4673,2.4776,2.4792,2.4828,2.4848,2.4833,2.4904,2.491,2.4916,2.4938,2.4946,2.485,2.485,2.4851,2.4851,0,2.3962,2.4034,2.4076,2.4178,2.4233,2.4301,2.4369,2.4417,2.4448,2.4498,2.4589,2.4662,2.475,2.4777,2.4809,2.4885,2.4882,2.4892,2.4887,2.4921,2.4942,2.4951,2.4849,2.4849,2.485,2.485,0,0,2.3978,2.4113,2.4127,2.4174,2.4275,2.4332,2.4403,2.4489,2.4529,2.4602,2.4662,2.4767,2.4777,2.4829,2.4868,2.491,2.4956,2.4915,2.4918,2.4919,2.5045,2.5036,2.5045,2.4973,2.4975,2.4976,2.5038,0,2.4031,2.4159,2.4213,2.4316,2.4384,2.4429,2.449,2.4559,2.4607,2.4672,2.4726,2.4799,2.4807,2.4839,2.4883,2.4941,2.4982,2.4938,2.503,2.5032,2.5006,2.5057,2.5048,2.5102,2.5047,2.5048,2.505,0,2.4108,2.4182,2.4291,2.4385,2.4415,2.4469,2.4553,2.4615,2.4694,2.4726,2.4785,2.4822,2.4898,2.489,2.4996,2.4964,2.5006,2.504,2.5044,2.5053,2.5042,2.5067,2.5121,2.5128,2.5064,2.5063,2.5062,0,2.4109,2.4235,2.4317,2.4356,2.4467,2.4504,2.4552,2.463,2.4679,2.4753,2.4785,2.4867,2.4911,2.4974,2.5032,2.5021,2.5133,2.5129,2.5161,2.516,2.5182,2.5179,2.5242,2.521,2.521,2.521,2.521,0,2.4161,2.4225,2.4318,2.4368,2.4443,2.4506,2.4578,2.4629,2.4699,2.476,2.4804,2.4861,2.4935,2.5001,2.5047,2.5128,2.5148,2.5176,2.5187,2.5171,2.5167,2.5198,2.5195,2.5212,2.5211,2.5211,2.5211,0,2.4172,2.4237,2.433,2.4428,2.4454,2.4505,2.4589,2.464,2.4691,2.4768,2.479,2.487,2.4951,2.5015,2.512,2.5151,2.5236,2.5249,2.5209,2.5214,2.5243,2.5239,2.5326,2.5341,2.53,2.53,2.53,0,2.42,2.4252,2.4356,2.44,2.4448,2.4519,2.4569,2.4634,2.4684,2.4779,2.4818,2.4902,2.4972,2.5098,2.5166,2.5247,2.5262,2.5287,2.5274,2.5257,2.5261,2.5257,2.5262,2.5288,2.5288,2.5288,2.5288,0,2.4243,2.4273,2.4344,2.4427,2.4486,2.4554,2.4623,2.4657,2.4734,2.4789,2.4872,2.4926,2.5034,2.5116,2.5204,2.5254,2.5284,2.5292,2.5304,2.5287,2.5261,2.5275,2.5211,2.5289,2.5289,2.5289,2.5289,2.5289,2.4264,2.4312,2.4393,2.4471,2.453,2.4593,2.4646,2.4705,2.4775,2.4867,2.4902,2.4986,2.5066,2.5187,2.5238,2.5305,2.5308,2.5325,2.5329,2.5332,2.5329,2.5251,2.5322,2.5322,2.5322,2.5322,2.5322,0,2.4309,2.4363,2.4434,2.453,2.4591,2.4615,2.4693,2.4743,2.4817,2.4889,2.4957,2.5052,2.5133,2.5208,2.5292,2.5332,2.5348,2.5352,2.5349,2.536,2.5323,2.5304,2.5337,2.5337,2.5337,2.5337,2.5337,2.5337,2.4339,2.4421,2.4461,2.4573,2.4627,2.4711,2.4754,2.4813,2.487,2.4975,2.5042,2.5091,2.5164,2.5254,2.5329,2.5349,2.5378,2.5378,2.5401,2.5365,2.5362,2.536,2.5343,2.5384,2.5384,2.5433,2.5434,2.5434]},{"header":{"parameterUnit":"m.s-1","parameterCategory":1,"la1":30.2991,"la2":30.254,"lo1":-89.0895,"lo2":-89.0444,"dy":0.0017,"dx":0.0017,"nx":28,"ny":28,"refTime":"2024-07-05T21:00:00:Z","depth":0,"parameterNumber":3,"parameterNumberName":"V-component_of_WINDS"},"data":[0,0,0,0,0,0,0,0,0,0,0,0,0,0,0,0,0,0,0,0,0,0,0,0,0,0,0,0,0,0,0,0,0,0,0,0,0,0,0,0,0,0,0,0,0,0,0,0,0,0,0,0,0,0,0,0,0,0,2.7393,2.7394,0,2.7485,2.7486,2.7487,2.7473,2.7472,2.747,2.7469,2.7561,2.7565,2.7568,0,0,0,0,0,0,0,0,0,0,0,0,0,2.7199,2.7202,2.7392,2.7394,2.7395,2.7485,2.7486,2.7487,2.7474,2.7472,2.747,2.7468,2.756,2.7564,2.7569,0,0,0,0,0,0,0,0,0,0,0,0,0,2.7286,2.7203,2.7392,2.7399,2.74,2.7485,2.7486,2.7488,2.7474,2.7472,2.7469,2.7467,2.7558,2.7564,2.7569,2.7652,0,0,2.7587,2.759,0,0,0,0,0,0,0,0,2.7281,2.7293,2.7397,2.7399,2.74,2.7465,2.7451,2.7543,2.7475,2.7446,2.7469,2.7466,2.7531,2.7539,2.7561,2.7656,2.766,2.7588,2.7591,2.7594,2.7596,0,0,0,0,0,0,0,2.7275,2.7289,2.7429,2.7398,2.7401,2.7395,2.7405,2.7469,2.75,2.7448,2.7448,2.7459,2.7531,2.7555,2.7563,2.7662,2.7588,2.7593,2.7596,2.7599,2.7825,2.7828,0,0,0,0,0,0,2.7268,2.7284,2.7426,2.7432,2.7334,2.7401,2.7412,2.7447,2.75,2.7505,2.7461,2.7458,2.7547,2.7556,2.7566,2.7664,2.7594,2.7599,2.7603,2.7823,2.7826,2.7829,0,0,0,0,0,0,2.7264,2.7281,2.7422,2.7358,2.7375,2.7407,2.7446,2.745,2.7474,2.7509,2.7514,2.748,2.7545,2.7558,2.763,2.7667,2.7602,2.7607,2.782,2.7824,2.7827,2.7863,0,0,0,0,0,0,2.7258,2.7279,2.7313,2.7359,2.7379,2.7487,2.7448,2.7453,2.7485,2.7482,2.7528,2.7534,2.7544,2.7622,2.7636,2.7674,2.7612,2.7817,2.7822,2.7826,2.7858,2.7867,2.7875,0,0,0,0,0,2.7251,2.7319,2.7314,2.7332,2.7422,2.7489,2.75,2.7512,2.7488,2.752,2.7542,2.7532,2.7661,2.7629,2.7645,2.7686,2.7814,2.782,2.7826,2.7855,2.7865,2.7875,0,0,0,0,0,0,2.7277,2.7325,2.7321,2.7406,2.7443,2.7486,2.7528,2.7523,2.7568,2.7563,2.7574,2.7585,2.7658,2.7679,2.7643,2.7767,2.7734,2.7743,2.775,2.7761,2.7769,2.7762,2.7617,0,0,0,0,0,2.7292,2.7344,2.7383,2.7454,2.7473,2.7497,2.7527,2.7532,2.7571,2.7587,2.7614,2.7651,2.7699,2.7731,2.7778,2.7861,2.7869,2.7896,2.7904,2.7911,2.7919,2.7961,2.7973,2.7847,2.7847,2.7847,0,0,2.7324,2.7357,2.739,2.746,2.749,2.7541,2.7511,2.7568,2.7605,2.7595,2.7665,2.7686,2.7727,2.7805,2.784,2.7824,2.7955,2.7918,2.7923,2.7928,2.7968,2.798,2.799,2.7851,2.785,2.785,0,0,2.741,2.7441,2.7502,2.7532,2.7577,2.7592,2.7607,2.765,2.7664,2.7734,2.7726,2.777,2.7854,2.7883,2.7909,2.8001,2.7993,2.8016,2.8059,2.81,2.811,2.8119,2.815,2.8161,2.8024,2.8024,2.8024,0,2.7445,2.7524,2.7534,2.7591,2.7621,2.7614,2.7674,2.7702,2.776,2.778,2.7762,2.7865,2.7893,2.7975,2.7997,2.8019,2.8034,2.8011,2.8108,2.8117,2.8125,2.8155,2.8167,2.8026,2.8026,2.8026,2.8025,0,2.7563,2.7617,2.7661,2.7717,2.7751,2.781,2.7827,2.786,2.7861,2.7878,2.7947,2.7979,2.8031,2.8051,2.8053,2.8133,2.8121,2.8106,2.8073,2.8139,2.8167,2.8179,2.8029,2.8029,2.8028,2.8027,0,0,2.7669,2.7728,2.7744,2.7767,2.7815,2.7856,2.7912,2.7963,2.7991,2.803,2.8076,2.8145,2.813,2.8159,2.8164,2.82,2.8268,2.8179,2.818,2.8193,2.8355,2.8366,2.8379,2.8262,2.8264,2.8266,2.8351,0,2.7758,2.786,2.7869,2.7959,2.8008,2.8,2.8048,2.8081,2.8097,2.8139,2.8155,2.8204,2.8181,2.8198,2.8233,2.8252,2.83,2.8246,2.8304,2.8306,2.8293,2.8394,2.8407,2.8486,2.8362,2.8364,2.8365,0,2.7877,2.7919,2.8013,2.8051,2.8072,2.8116,2.8161,2.8202,2.8238,2.8246,2.8277,2.8276,2.8331,2.8296,2.8371,2.8334,2.8358,2.837,2.8373,2.8379,2.834,2.8402,2.8511,2.8523,2.8383,2.8381,2.838,0,2.7943,2.8023,2.8089,2.811,2.8156,2.8187,2.8207,2.8241,2.8269,2.8308,2.8327,2.8371,2.8396,2.8429,2.8439,2.8413,2.8513,2.8479,2.852,2.852,2.8542,2.8541,2.8656,2.8558,2.8558,2.8557,2.8557,0,2.8041,2.8099,2.8119,2.816,2.8224,2.8232,2.8294,2.8313,2.8342,2.8384,2.8379,2.8419,2.843,2.8471,2.8478,2.8538,2.8549,2.8556,2.8557,2.8557,2.8556,2.8572,2.8567,2.8561,2.856,2.8559,2.8559,0,2.8127,2.8143,2.8214,2.8251,2.8261,2.8306,2.8337,2.8375,2.8388,2.8442,2.8455,2.8476,2.8523,2.8536,2.8593,2.8598,2.8667,2.8664,2.8656,2.8656,2.8695,2.8691,2.8825,2.8843,2.8734,2.8735,2.8735,0,2.8189,2.8233,2.8274,2.8302,2.8324,2.837,2.8398,2.8407,2.8437,2.8479,2.8512,2.8558,2.8596,2.8672,2.8691,2.8733,2.8731,2.8774,2.8737,2.8734,2.873,2.8727,2.873,2.8782,2.8783,2.8784,2.8785,0,2.8296,2.8301,2.8344,2.8388,2.8423,2.8458,2.8492,2.8515,2.8528,2.8561,2.861,2.8639,2.8696,2.8742,2.8784,2.8802,2.8795,2.8796,2.8807,2.8807,2.88,2.8803,2.8675,2.8793,2.8792,2.8792,2.8791,2.8791,2.8371,2.8409,2.8443,2.849,2.8515,2.8546,2.8583,2.86,2.8641,2.8689,2.8691,2.8743,2.8774,2.883,2.885,2.889,2.8876,2.8894,2.8898,2.8902,2.8905,2.8794,2.8897,2.8897,2.8897,2.8897,2.8897,0,2.8477,2.8498,2.8541,2.8588,2.8623,2.8613,2.8649,2.8679,2.8725,2.8755,2.8792,2.8846,2.8889,2.8911,2.8953,2.898,2.8977,2.8991,2.8989,2.8993,2.8915,2.89,2.8992,2.8992,2.8992,2.8992,2.8992,2.8992,2.8537,2.86,2.8608,2.8682,2.8702,2.8753,2.8774,2.8802,2.8825,2.8886,2.8922,2.8936,2.8961,2.9005,2.9043,2.9048,2.9063,2.9078,2.9081,2.9008,2.8999,2.8989,2.8976,2.9082,2.9082,2.9156,2.9156,2.9157]}]]